Terminal Aerodrome Forecast
Issued by NWS Upton, NY

Home | Current Version | Previous Version | Text Only | Print | Product List | Glossary On
Versions: 1 2 3 4 5 6 7 8 9 10 11 12 13 14 15 16 17 18 19 20 21 22 23 24 25 26 27 28 29 30 31 32 33 34 35 36 37 38 39
000
FTUS41 KOKX 281156 AAA
TAFISP
TAF AMD
KISP 281156Z 2812/2912 23004KT 4SM BR SCT006
      TEMPO 2812/2813 BKN006
     FM281400 19004KT P6SM FEW250
     FM281600 18007KT P6SM FEW250
     FM281800 19011KT P6SM SCT060 SCT250
     FM282100 19009KT P6SM FEW060 BKN200
     FM290000 18005KT P6SM FEW070 BKN150
     FM290200 18004KT P6SM VCSH FEW080 BKN150
     FM290800 VRB03KT 6SM -SHRA SCT060 BKN120=

USA.gov is the U.S. government's official web portal to all federal, state and local government web resources and services.